Tracking 27380 objects as of 5-Jun-2023
HD Live streaming from Space Station
objects crossing your sky now

STARLINK-1171

Track STARLINK-1171 now!
10-day predictions
STARLINK-1171 is classified as:


NORAD ID: 45062
Int'l Code: 2020-006U
Perigee: 553.5 km
Apogee: 555.2 km
Inclination: 53.1 °
Period: 95.6 minutes
Semi major axis: 6925 km
RCS: Unknown
Launch date: January 29, 2020
Source: United States (US)
Launch site: AIR FORCE EASTERN TEST RANGE (AFETR)
Your satellite tracking list
Your tracking list is empty




NASA's NSSDC Master Catalog

Two Line Element Set (TLE):
1 45062U 20006U   23155.74726109  .00001108  00000-0  93252-4 0  9992
2 45062  53.0538 135.9342 0001216  86.1418 273.9710 15.06396955184391
Source of the keplerian elements: AFSPC